Volver al catálogo

ASTEX 1

ActivoCienciaPO
NORAD 5560·PAYLOAD·🇺🇸 United States

Lanzado Oct 17, 1971 desde Vandenberg Space Force Base

Loading…

Próximos Pases (próximas 24 horas)

TLE

ActualizadoSource: Space-Track

Época: Sep 14, 2026, 14:13 UTC

1 05560U 71089A   26257.59303574  .00000362  00000-0  91721-4 0  9994
2 05560  92.7100 212.6828 0016134 158.0894 202.1005 14.50910586889695

Sigue ASTEX 1 en tiempo real con AllMySat

Download on the App Store